FW3031 Weather Reports


Display with metric or nautical units.
time (UTC)temp
F
wind
direction
speed
MPH
gust
MPH
rain 1hr
in
rain 24hr
in
rain mn
in
humidity
%
barometer
mb
20260510063537 80 190 0.0 5.0 0.00 0.00 0.00 53 1011.8
20260510063057 80 190 2.0 5.0 0.00 0.00 0.00 52 1011.4
20260510063038 80 190 2.0 5.0 0.00 0.00 0.00 52 1011.8
20260510062536 80 190 0.0 4.0 0.00 0.00 0.00 52 1011.8
20260510062035 80 190 0.0 5.0 0.00 0.00 0.00 53 1011.9
20260510061600 80 190 2.0 5.0 0.00 0.00 0.00 53 1011.5
20260510061534 80 190 1.0 5.0 0.00 0.00 0.00 53 1012.0
20260510061034 80 190 1.0 5.0 0.00 0.00 0.00 53 1012.0
20260510060534 80 190 2.0 5.0 0.00 0.00 0.00 53 1012.1
20260510060059 81 190 0.0 2.0 0.00 0.00 0.00 52 1011.6
20260510060032 80 190 0.0 4.0 0.00 0.00 0.00 53 1012.1
20260510055531 81 190 0.0 3.0 0.00 0.00 0.00 52 1012.1
20260510055031 81 190 0.0 4.0 0.00 0.00 0.00 51 1012.2
20260510054558 81 190 0.0 2.0 0.00 0.00 0.00 50 1011.7
20260510054532 81 190 0.0 4.0 0.00 0.00 0.00 51 1012.2
20260510054031 81 190 0.0 3.0 0.00 0.00 0.00 51 1012.1
20260510053532 81 190 0.0 3.0 0.00 0.00 0.00 51 1012.1
20260510053059 81 0 0.0 6.0 0.00 0.00 0.00 50 1011.7
20260510053031 81 190 0.0 6.0 0.00 0.00 0.00 51 1012.2
20260510052530 81 190 1.0 5.0 0.00 0.00 0.00 51 1012.2
20260510052030 81 190 0.0 5.0 0.00 0.00 0.00 51 1012.1
20260510051605 81 190 1.0 7.0 0.00 0.00 0.00 50 1011.7
20260510051530 81 190 1.0 5.0 0.00 0.00 0.00 51 1012.1
20260510051029 81 190 1.0 7.0 0.00 0.00 0.00 51 1012.0
20260510050528 81 190 1.0 6.0 0.00 0.00 0.00 51 1011.9
20260510050057 82 190 1.0 7.0 0.00 0.00 0.00 50 1011.4
20260510050033 82 190 2.0 7.0 0.00 0.00 0.00 50 1011.8
20260510045530 82 190 2.0 7.0 0.00 0.00 0.00 50 1011.8
20260510045028 82 190 1.0 8.0 0.00 0.00 0.00 49 1011.7
20260510044612 82 190 2.0 10.0 0.00 0.00 0.00 48 1011.3
20260510044534 82 190 2.0 10.0 0.00 0.00 0.00 49 1011.8
20260510044026 83 190 0.0 10.0 0.00 0.00 0.00 48 1011.6
20260510043526 83 190 1.0 10.0 0.00 0.00 0.00 48 1011.5
20260510043058 83 190 2.0 5.0 0.00 0.00 0.00 47 1011.1
20260510043025 83 190 1.0 5.0 0.00 0.00 0.00 47 1011.4
20260510042523 84 190 1.0 11.0 0.00 0.00 0.00 47 1011.3
20260510042023 84 190 2.0 11.0 0.00 0.00 0.00 46 1011.2
20260510041559 85 190 3.0 10.0 0.00 0.00 0.00 46 1010.9
20260510041522 85 190 3.0 10.0 0.00 0.00 0.00 46 1011.1
20260510041021 85 190 3.0 9.0 0.00 0.00 0.00 46 1010.9
20260510040520 85 190 1.0 7.0 0.00 0.00 0.00 46 1010.6
20260510040100 85 0 1.0 5.0 0.00 0.00 0.00 45 1010.4
20260510040020 85 190 0.0 5.0 0.00 0.00 0.00 46 1010.5
20260510035519 85 190 0.0 3.0 0.00 0.00 0.00 45 1010.5
20260510035020 85 190 0.0 3.0 0.00 0.00 0.00 45 1010.4
20260510034557 85 0 0.0 6.0 0.00 0.00 0.00 44 1010.1
20260510034520 85 190 0.0 6.0 0.00 0.00 0.00 45 1010.3
20260510034021 85 190 1.0 6.0 0.00 0.00 0.00 45 1010.1
20260510033519 85 190 0.0 6.0 0.00 0.00 0.00 44 1010.0
20260510033110 86 190 0.0 5.0 0.00 0.00 0.00 44 1009.9
20260510033019 86 190 0.0 5.0 0.00 0.00 0.00 45 1009.9
20260510032518 86 190 0.0 5.0 0.00 0.00 0.00 45 1009.7
20260510032018 86 190 1.0 4.0 0.00 0.00 0.00 45 1009.6
20260510031557 86 0 1.0 3.0 0.00 0.00 0.00 44 1009.5
20260510031523 86 190 0.0 3.0 0.00 0.00 0.00 45 1009.4
20260510031018 86 190 0.0 0.0 0.00 0.00 0.00 45 1009.4
20260510030521 86 190 0.0 3.0 0.00 0.00 0.00 44 1009.2
20260510030106 87 0 0.0 5.0 0.00 0.00 0.00 44 1008.9
20260510030031 87 190 0.0 3.0 0.00 0.00 0.00 44 1009.1
20260510025517 87 190 1.0 5.0 0.00 0.00 0.00 44 1008.9
20260510025019 87 190 1.0 5.0 0.00 0.00 0.00 43 1008.8
20260510024558 87 0 0.0 2.0 0.00 0.00 0.00 43 1008.7
20260510024519 87 190 0.0 2.0 0.00 0.00 0.00 43 1008.8
20260510024017 87 190 0.0 4.0 0.00 0.00 0.00 43 1008.8
20260510023519 87 190 0.0 6.0 0.00 0.00 0.00 43 1008.7
20260510023059 87 0 2.0 6.0 0.00 0.00 0.00 42 1008.3
20260510023017 87 190 2.0 6.0 0.00 0.00 0.00 43 1008.5
20260510022516 87 190 0.0 7.0 0.00 0.00 0.00 42 1008.4
20260510022016 88 190 0.0 7.0 0.00 0.00 0.00 42 1008.3
20260510021608 88 0 1.0 4.0 0.00 0.00 0.00 41 1008.3
20260510021516 88 190 0.0 4.0 0.00 0.00 0.00 41 1008.3
20260510021017 88 190 0.0 5.0 0.00 0.00 0.00 40 1008.2
20260510020515 88 190 1.0 5.0 0.00 0.00 0.00 40 1008.1
20260510020100 88 0 0.0 9.0 0.00 0.00 0.00 39 1007.9
20260510020016 88 190 1.0 9.0 0.00 0.00 0.00 40 1007.9
20260510015517 88 190 1.0 9.0 0.00 0.00 0.00 40 1007.9
20260510015015 88 190 2.0 9.0 0.00 0.00 0.00 39 1007.7
20260510014601 89 190 3.0 8.0 0.00 0.00 0.00 39 1007.5
20260510014515 89 190 2.0 8.0 0.00 0.00 0.00 39 1007.6
20260510014015 89 190 2.0 7.0 0.00 0.00 0.00 39 1007.4
20260510013517 90 190 1.0 8.0 0.00 0.00 0.00 38 1007.2
20260510013059 90 190 3.0 10.0 0.00 0.00 0.00 36 1007.1
20260510013015 90 190 2.0 10.0 0.00 0.00 0.00 37 1007.1
20260510012513 91 190 5.0 10.0 0.00 0.00 0.00 35 1006.8
20260510012013 91 190 1.0 9.0 0.00 0.00 0.00 34 1006.5
20260510011559 91 190 4.0 11.0 0.00 0.00 0.00 33 1006.5
20260510011514 91 190 2.0 10.0 0.00 0.00 0.00 34 1006.4
20260510011017 91 190 4.0 12.0 0.00 0.00 0.00 34 1006.2
20260510010513 92 190 3.0 12.0 0.00 0.00 0.00 34 1006.1
20260510010100 92 190 6.0 17.0 0.00 0.00 0.00 33 1006.0
20260510010015 92 190 5.0 15.0 0.00 0.00 0.00 33 1006.0
20260510005512 92 190 5.0 17.0 0.00 0.00 0.00 33 1005.8
20260510005011 92 190 7.0 13.0 0.00 0.00 0.00 33 1005.7
20260510004600 93 190 5.0 14.0 0.00 0.00 0.00 32 1005.6
20260510004511 93 190 5.0 10.0 0.00 0.00 0.00 32 1005.5
20260510004015 93 190 4.0 14.0 0.00 0.00 0.00 32 1005.2
20260510003512 94 190 6.0 14.0 0.00 0.00 0.00 32 1005.2
20260510003100 94 190 4.0 11.0 0.00 0.00 0.00 31 1005.2
20260510003021 94 190 3.0 11.0 0.00 0.00 0.00 31 1005.0
20260510002511 94 190 3.0 11.0 0.00 0.00 0.00 31 1004.9
20260510002011 94 190 4.0 11.0 0.00 0.00 0.00 31 1004.9
20260510001556 94 190 4.0 11.0 0.00 0.00 0.00 30 1005.0
20260510001511 94 190 4.0 11.0 0.00 0.00 0.00 31 1004.9
20260510001011 94 190 4.0 11.0 0.00 0.00 0.00 31 1004.8
20260510000511 95 190 4.0 11.0 0.00 0.00 0.00 30 1004.7
20260510000103 95 190 4.0 9.0 0.00 0.00 0.00 30 1004.7
20260510000010 95 190 3.0 9.0 0.00 0.00 0.00 30 1004.7
20260509235512 95 190 4.0 10.0 0.00 0.00 0.00 30 1004.7
20260509235010 95 190 4.0 14.0 0.00 0.00 0.00 30 1004.6
20260509234559 95 190 5.0 14.0 0.00 0.00 0.00 29 1004.5
20260509234514 95 190 5.0 14.0 0.00 0.00 0.00 30 1004.6
20260509234010 96 190 4.0 9.0 0.00 0.00 0.00 29 1004.5
20260509233509 96 190 2.0 8.0 0.00 0.00 0.00 29 1004.4
20260509233058 96 190 3.0 6.0 0.00 0.00 0.00 28 1004.3
20260509233020 96 190 3.0 6.0 0.00 0.00 0.00 29 1004.3
20260509232515 96 190 2.0 6.0 0.00 0.00 0.00 30 1004.3
20260509232009 96 190 0.0 10.0 0.00 0.00 0.00 29 1004.1
20260509231601 96 190 2.0 10.0 0.00 0.00 0.00 29 1004.1
20260509231509 96 190 0.0 10.0 0.00 0.00 0.00 29 1004.1
20260509231008 96 190 4.0 10.0 0.00 0.00 0.00 29 1004.0
20260509230508 96 190 4.0 9.0 0.00 0.00 0.00 29 1003.9
20260509230008 96 190 3.0 12.0 0.00 0.00 0.00 29 1003.9
20260509225508 96 190 6.0 12.0 0.00 0.00 0.00 29 1003.9
20260509225009 96 190 3.0 9.0 0.00 0.00 0.00 29 1003.9
20260509224601 96 190 3.0 12.0 0.00 0.00 0.00 28 1003.8
20260509224507 96 190 4.0 12.0 0.00 0.00 0.00 29 1003.9
20260509224008 96 190 4.0 12.0 0.00 0.00 0.00 29 1003.9
20260509223506 96 190 4.0 8.0 0.00 0.00 0.00 29 1003.9
20260509223058 96 190 1.0 7.0 0.00 0.00 0.00 29 1003.9
20260509223005 96 190 2.0 6.0 0.00 0.00 0.00 29 1004.0
20260509222505 96 190 2.0 7.0 0.00 0.00 0.00 29 1004.0
20260509222103 96 190 3.0 8.0 0.00 0.00 0.00 29 1004.0
20260509221603 96 190 4.0 11.0 0.00 0.00 0.00 28 1004.1
20260509221504 96 190 3.0 10.0 0.00 0.00 0.00 29 1004.1
20260509221006 96 190 3.0 11.0 0.00 0.00 0.00 29 1004.1
20260509220502 96 190 5.0 11.0 0.00 0.00 0.00 29 1004.1
20260509220110 96 190 3.0 12.0 0.00 0.00 0.00 28 1004.4
20260509220002 96 190 2.0 11.0 0.00 0.00 0.00 28 1004.2
20260509215501 96 190 4.0 12.0 0.00 0.00 0.00 29 1004.3
20260509215100 97 190 6.0 12.0 0.00 0.00 0.00 28 1004.4
20260509214604 97 190 0.0 9.0 0.00 0.00 0.00 29 1004.7
20260509214602 96 190 0.0 9.0 0.00 0.00 0.00 30 1004.5
20260509214057 96 190 3.0 9.0 0.00 0.00 0.00 29 1004.6
20260509213558 96 190 3.0 9.0 0.00 0.00 0.00 30 1004.7
20260509213138 96 190 4.0 12.0 0.00 0.00 0.00 29 1004.9
20260509213056 96 190 3.0 12.0 0.00 0.00 0.00 29 1004.8
20260509212554 96 190 4.0 12.0 0.00 0.00 0.00 29 1004.9
20260509212054 96 190 6.0 13.0 0.00 0.00 0.00 30 1005.0
20260509211556 97 190 5.0 11.0 0.00 0.00 0.00 29 1005.2
20260509211055 96 190 2.0 11.0 0.00 0.00 0.00 30 1005.0
20260509210550 97 190 2.0 10.0 0.00 0.00 0.00 30 1005.1
20260509210106 97 190 5.0 12.0 0.00 0.00 0.00 29 1005.3
20260509210048 97 190 2.0 12.0 0.00 0.00 0.00 29 1005.1
20260509205546 96 190 4.0 12.0 0.00 0.00 0.00 29 1005.2
20260509205049 96 190 2.0 12.0 0.00 0.00 0.00 29 1005.3
20260509204559 96 190 4.0 11.0 0.00 0.00 0.00 29 1005.6
20260509204545 96 190 4.0 11.0 0.00 0.00 0.00 30 1005.5
20260509204044 96 190 3.0 11.0 0.00 0.00 0.00 29 1005.6
20260509203544 96 190 3.0 13.0 0.00 0.00 0.00 29 1005.7
20260509203103 95 190 6.0 13.0 0.00 0.00 0.00 30 1005.8
20260509203100 96 190 7.0 13.0 0.00 0.00 0.00 29 1005.8
20260509202545 96 190 5.0 10.0 0.00 0.00 0.00 29 1005.9
20260509202041 96 190 3.0 12.0 0.00 0.00 0.00 29 1006.0
20260509201559 96 190 5.0 12.0 0.00 0.00 0.00 29 1006.3
20260509201539 96 190 5.0 12.0 0.00 0.00 0.00 29 1006.1
20260509201037 96 190 5.0 10.0 0.00 0.00 0.00 29 1006.3
20260509200537 96 190 6.0 12.0 0.00 0.00 0.00 30 1006.5
20260509200104 95 190 5.0 12.0 0.00 0.00 0.00 30 1006.6
20260509200036 95 190 4.0 12.0 0.00 0.00 0.00 30 1006.6
20260509195545 96 190 5.0 11.0 0.00 0.00 0.00 30 1006.8
20260509195034 95 190 3.0 14.0 0.00 0.00 0.00 30 1006.9
20260509194557 95 190 8.0 14.0 0.00 0.00 0.00 30 1007.1
20260509194533 95 190 6.0 14.0 0.00 0.00 0.00 30 1007.0
20260509194033 96 190 5.0 10.0 0.00 0.00 0.00 29 1007.0
20260509193532 96 190 4.0 17.0 0.00 0.00 0.00 30 1007.1
20260509193059 95 190 8.0 17.0 0.00 0.00 0.00 30 1007.1
20260509193032 95 190 5.0 17.0 0.00 0.00 0.00 30 1007.2
20260509192529 95 190 5.0 12.0 0.00 0.00 0.00 30 1007.3
20260509192028 95 190 3.0 8.0 0.00 0.00 0.00 30 1007.5
20260509191557 95 190 3.0 10.0 0.00 0.00 0.00 30 1007.6
20260509191530 95 190 3.0 10.0 0.00 0.00 0.00 30 1007.7
20260509191030 94 190 5.0 10.0 0.00 0.00 0.00 31 1007.8
20260509190526 95 190 4.0 9.0 0.00 0.00 0.00 31 1008.0
20260509190057 95 190 4.0 10.0 0.00 0.00 0.00 30 1008.0
20260509190026 95 190 2.0 9.0 0.00 0.00 0.00 31 1008.0
20260509185526 95 190 3.0 10.0 0.00 0.00 0.00 31 1008.1
20260509185026 94 190 5.0 10.0 0.00 0.00 0.00 31 1008.2
20260509184559 94 190 3.0 8.0 0.00 0.00 0.00 31 1008.2
20260509184530 94 190 1.0 8.0 0.00 0.00 0.00 31 1008.2
20260509184021 94 190 0.0 9.0 0.00 0.00 0.00 32 1008.4
20260509183521 94 190 3.0 9.0 0.00 0.00 0.00 31 1008.5
20260509183101 94 190 3.0 10.0 0.00 0.00 0.00 31 1008.5
20260509183021 94 190 3.0 7.0 0.00 0.00 0.00 32 1008.6
20260509182518 93 190 2.0 10.0 0.00 0.00 0.00 33 1008.7
20260509182019 93 190 3.0 10.0 0.00 0.00 0.00 32 1008.9
20260509181601 93 190 1.0 10.0 0.00 0.00 0.00 32 1008.8
20260509181517 93 190 0.0 10.0 0.00 0.00 0.00 32 1009.0
20260509181016 92 190 2.0 10.0 0.00 0.00 0.00 33 1009.1
20260509180515 92 190 1.0 9.0 0.00 0.00 0.00 34 1009.1
20260509180018 92 190 1.0 9.0 0.00 0.00 0.00 34 1009.1
20260509175516 92 190 4.0 9.0 0.00 0.00 0.00 33 1009.2
20260509175015 92 190 4.0 6.0 0.00 0.00 0.00 33 1009.2
20260509174557 92 0 0.0 7.0 0.00 0.00 0.00 34 1009.1
20260509174516 91 190 0.0 7.0 0.00 0.00 0.00 34 1009.2
20260509174020 92 190 3.0 7.0 0.00 0.00 0.00 34 1009.3
20260509173515 92 190 0.0 7.0 0.00 0.00 0.00 34 1009.2
20260509173115 92 190 3.0 7.0 0.00 0.00 0.00 34 1009.3
20260509173057 92 190 2.0 7.0 0.00 0.00 0.00 34 1009.1
20260509172514 92 190 3.0 7.0 0.00 0.00 0.00 35 1009.3
20260509172013 92 190 0.0 5.0 0.00 0.00 0.00 36 1009.4
20260509171556 92 190 1.0 7.0 0.00 0.00 0.00 35 1009.3
20260509171512 92 190 1.0 7.0 0.00 0.00 0.00 35 1009.5
20260509171010 91 190 1.0 7.0 0.00 0.00 0.00 36 1009.6
20260509170510 91 190 1.0 6.0 0.00 0.00 0.00 37 1009.6
20260509170059 91 190 3.0 6.0 0.00 0.00 0.00 36 1009.5
20260509170010 91 190 3.0 6.0 0.00 0.00 0.00 36 1009.7
20260509165510 90 190 2.0 6.0 0.00 0.00 0.00 36 1009.8
20260509165008 90 190 1.0 4.0 0.00 0.00 0.00 37 1009.8
20260509164559 90 0 1.0 4.0 0.00 0.00 0.00 37 1009.6
20260509164507 90 190 0.0 4.0 0.00 0.00 0.00 37 1009.8
20260509164006 89 190 0.0 4.0 0.00 0.00 0.00 38 1009.8
20260509163508 89 190 0.0 5.0 0.00 0.00 0.00 38 1009.9
20260509163059 89 190 2.0 6.0 0.00 0.00 0.00 37 1009.6
20260509163007 89 190 1.0 6.0 0.00 0.00 0.00 38 1010.0
20260509162504 89 190 1.0 5.0 0.00 0.00 0.00 38 1009.9
20260509162002 88 190 1.0 5.0 0.00 0.00 0.00 38 1009.9
20260509161608 88 0 1.0 5.0 0.00 0.00 0.00 38 1009.7
20260509161503 88 190 1.0 5.0 0.00 0.00 0.00 39 1010.0
20260509161002 88 190 0.0 4.0 0.00 0.00 0.00 39 1010.1
20260509160501 87 190 0.0 3.0 0.00 0.00 0.00 39 1010.1
20260509160105 87 190 1.0 3.0 0.00 0.00 0.00 38 1009.8
20260509160101 87 190 0.0 3.0 0.00 0.00 0.00 38 1010.2
20260509155559 87 190 0.0 3.0 0.00 0.00 0.00 39 1010.2
20260509155058 87 190 0.0 0.0 0.00 0.00 0.00 40 1010.2
20260509154618 86 0 0.0 3.0 0.00 0.00 0.00 39 1009.9
20260509154558 86 190 0.0 2.0 0.00 0.00 0.00 40 1010.3
20260509154059 86 190 0.0 3.0 0.00 0.00 0.00 40 1010.3
20260509153556 85 190 0.0 5.0 0.00 0.00 0.00 40 1010.3
20260509153110 85 190 0.0 4.0 0.00 0.00 0.00 40 1010.1
20260509153054 85 190 0.0 4.0 0.00 0.00 0.00 40 1010.5
20260509152553 85 190 1.0 4.0 0.00 0.00 0.00 42 1010.6
20260509152053 85 190 1.0 4.0 0.00 0.00 0.00 42 1010.5
20260509151611 85 190 2.0 4.0 0.00 0.00 0.00 42 1010.2
20260509151559 84 190 1.0 4.0 0.00 0.00 0.00 43 1010.5
20260509151051 85 190 0.0 0.0 0.00 0.00 0.00 44 1010.5
20260509150551 84 190 0.0 4.0 0.00 0.00 0.00 44 1010.6
20260509150105 84 190 1.0 4.0 0.00 0.00 0.00 44 1010.3
20260509150052 84 190 1.0 4.0 0.00 0.00 0.00 45 1010.5
20260509145550 83 190 1.0 4.0 0.00 0.00 0.00 46 1010.5
20260509145051 83 190 0.0 2.0 0.00 0.00 0.00 47 1010.5
20260509144601 82 0 0.0 3.0 0.00 0.00 0.00 47 1010.1
20260509144550 82 190 0.0 3.0 0.00 0.00 0.00 48 1010.5
20260509144050 82 190 0.0 3.0 0.00 0.00 0.00 49 1010.5
20260509143552 81 190 0.0 2.0 0.00 0.00 0.00 49 1010.5
20260509143058 81 0 0.0 2.0 0.00 0.00 0.00 50 1010.3
20260509143051 80 190 0.0 2.0 0.00 0.00 0.00 51 1010.5
20260509142549 80 190 0.0 0.0 0.00 0.00 0.00 52 1010.6
20260509142050 79 190 0.0 0.0 0.00 0.00 0.00 52 1010.6
20260509141600 79 0 0.0 1.0 0.00 0.00 0.00 52 1010.1
20260509141549 79 190 0.0 0.0 0.00 0.00 0.00 52 1010.6
20260509141049 79 190 0.0 2.0 0.00 0.00 0.00 53 1010.6
20260509140548 78 190 0.0 2.0 0.00 0.00 0.00 54 1010.7
20260509140105 78 0 0.0 3.0 0.00 0.00 0.00 54 1010.1
20260509140049 78 190 0.0 2.0 0.00 0.00 0.00 54 1010.6
20260509135548 77 190 0.0 3.0 0.00 0.00 0.00 55 1010.6
20260509135047 77 190 1.0 3.0 0.00 0.00 0.00 55 1010.6
20260509134603 77 0 0.0 0.0 0.00 0.00 0.00 55 1010.1
20260509134548 77 190 0.0 0.0 0.00 0.00 0.00 56 1010.6
20260509134047 76 190 0.0 0.0 0.00 0.00 0.00 56 1010.5
20260509133547 76 190 0.0 0.0 0.00 0.00 0.00 57 1010.4
20260509133058 75 0 0.0 0.0 0.00 0.00 0.00 58 1009.9
20260509133046 75 190 0.0 0.0 0.00 0.00 0.00 58 1010.4
20260509132545 74 190 0.0 0.0 0.00 0.00 0.00 59 1010.3
20260509132044 74 190 0.0 0.0 0.00 0.00 0.00 59 1010.3
20260509131557 74 0 0.0 2.0 0.00 0.00 0.00 59 1009.6
20260509131549 73 190 0.0 2.0 0.00 0.00 0.00 59 1010.2
20260509131043 73 190 0.0 2.0 0.00 0.00 0.00 59 1010.2
20260509130543 73 190 0.0 2.0 0.00 0.00 0.00 59 1010.1
20260509130100 73 0 0.0 0.0 0.00 0.00 0.00 59 1009.6
20260509130056 73 190 0.0 0.0 0.00 0.00 0.00 60 1010.0
20260509125540 73 190 0.0 0.0 0.00 0.00 0.00 60 1010.0
20260509125041 73 190 0.0 0.0 0.00 0.00 0.00 61 1009.9
20260509124604 73 0 0.0 1.0 0.00 0.00 0.00 61 1009.4
20260509124543 73 190 0.0 1.0 0.00 0.00 0.00 61 1009.8
20260509124040 73 190 0.0 0.0 0.00 0.00 0.00 60 1009.8
20260509123540 73 190 0.0 0.0 0.00 0.00 0.00 60 1009.8
20260509123057 73 0 0.0 2.0 0.00 0.00 0.00 59 1009.3
20260509123042 73 190 0.0 2.0 0.00 0.00 0.00 60 1009.7
20260509122539 73 190 0.0 2.0 0.00 0.00 0.00 60 1009.6
20260509122039 73 190 0.0 0.0 0.00 0.00 0.00 60 1009.5
20260509121611 73 0 0.0 0.0 0.00 0.00 0.00 59 1009.0
20260509121537 73 190 0.0 0.0 0.00 0.00 0.00 60 1009.3
20260509121037 73 190 0.0 0.0 0.00 0.00 0.00 60 1009.2
20260509120536 73 190 0.0 0.0 0.00 0.00 0.00 60 1009.1
20260509120112 73 0 0.0 2.0 0.00 0.00 0.00 59 1008.7
20260509120036 73 190 0.0 2.0 0.00 0.00 0.00 59 1009.1
20260509115534 74 190 0.0 2.0 0.00 0.00 0.00 59 1009.1
20260509115033 74 190 0.0 0.0 0.00 0.00 0.00 59 1009.2
20260509114559 74 0 0.0 0.0 0.00 0.00 0.00 58 1008.7
20260509114533 74 190 0.0 0.0 0.00 0.00 0.00 59 1009.0
20260509114032 74 190 0.0 0.0 0.00 0.00 0.00 59 1009.0
20260509113532 74 190 0.0 0.0 0.00 0.00 0.00 59 1008.9
20260509113059 74 0 0.0 0.0 0.00 0.00 0.00 58 1008.5
20260509113031 74 190 0.0 0.0 0.00 0.00 0.00 58 1008.9
20260509112530 74 190 0.0 0.0 0.00 0.00 0.00 58 1008.8
20260509112030 75 190 0.0 0.0 0.00 0.00 0.00 58 1008.7
20260509111559 75 0 0.0 0.0 0.00 0.00 0.00 56 1008.2
20260509111531 75 190 0.0 0.0 0.00 0.00 0.00 57 1008.7
20260509111030 75 190 0.0 0.0 0.00 0.00 0.00 57 1008.7
20260509110529 74 190 0.0 0.0 0.00 0.00 0.00 58 1008.6
20260509110029 74 190 0.0 1.0 0.00 0.00 0.00 57 1008.6
20260509105528 74 190 0.0 2.0 0.00 0.00 0.00 57 1008.6
20260509105028 75 190 0.0 2.0 0.00 0.00 0.00 56 1008.5
20260509104600 75 0 0.0 2.0 0.00 0.00 0.00 55 1008.1
20260509104527 75 190 0.0 1.0 0.00 0.00 0.00 56 1008.5
20260509104026 75 190 0.0 3.0 0.00 0.00 0.00 56 1008.5
20260509103525 75 190 1.0 3.0 0.00 0.00 0.00 55 1008.5
20260509103104 76 190 0.0 3.0 0.00 0.00 0.00 55 1008.1
20260509103023 76 190 0.0 3.0 0.00 0.00 0.00 55 1008.4
20260509102522 77 190 1.0 3.0 0.00 0.00 0.00 56 1008.5
20260509102021 77 190 0.0 0.0 0.00 0.00 0.00 55 1008.5
20260509101603 77 0 0.0 0.0 0.00 0.00 0.00 55 1008.3
20260509101520 77 190 0.0 0.0 0.00 0.00 0.00 55 1008.6
20260509101019 77 190 0.0 0.0 0.00 0.00 0.00 54 1008.6
20260509100517 78 190 0.0 0.0 0.00 0.00 0.00 54 1008.6
20260509100057 78 0 0.0 0.0 0.00 0.00 0.00 53 1008.3
20260509100021 78 190 0.0 0.0 0.00 0.00 0.00 53 1008.6
20260509095517 78 190 0.0 0.0 0.00 0.00 0.00 53 1008.7
20260509095019 78 190 0.0 0.0 0.00 0.00 0.00 53 1008.7
20260509094601 78 0 0.0 0.0 0.00 0.00 0.00 53 1008.5
20260509094515 78 190 0.0 0.0 0.00 0.00 0.00 53 1008.8
20260509094015 78 190 0.0 0.0 0.00 0.00 0.00 53 1008.7
20260509093515 78 190 0.0 0.0 0.00 0.00 0.00 52 1008.7
20260509093058 79 0 0.0 0.0 0.00 0.00 0.00 52 1008.5
20260509093014 78 190 0.0 0.0 0.00 0.00 0.00 53 1008.7
20260509092520 79 190 0.0 0.0 0.00 0.00 0.00 52 1008.7
20260509092013 79 190 0.0 0.0 0.00 0.00 0.00 52 1008.7
20260509091632 79 0 0.0 0.0 0.00 0.00 0.00 52 1008.6
20260509091513 79 190 0.0 0.0 0.00 0.00 0.00 52 1008.7
20260509091014 79 190 0.0 0.0 0.00 0.00 0.00 52 1008.7
20260509090511 79 190 0.0 0.0 0.00 0.00 0.00 51 1008.7
20260509090057 79 0 0.0 0.0 0.00 0.00 0.00 51 1008.5
20260509090012 79 190 0.0 0.0 0.00 0.00 0.00 51 1008.8
20260509085511 79 190 0.0 0.0 0.00 0.00 0.00 51 1008.7
20260509085010 79 190 0.0 0.0 0.00 0.00 0.00 51 1008.8
20260509084557 79 0 0.0 0.0 0.00 0.00 0.00 50 1008.8
20260509084517 79 190 0.0 0.0 0.00 0.00 0.00 51 1008.9
20260509084013 79 190 0.0 0.0 0.00 0.00 0.00 50 1008.9
20260509083507 79 190 0.0 0.0 0.00 0.00 0.00 50 1008.9
20260509083100 80 0 0.0 0.0 0.00 0.00 0.00 50 1008.8
20260509083015 80 190 0.0 0.0 0.00 0.00 0.00 50 1009.0
20260509082509 80 190 0.0 0.0 0.00 0.00 0.00 50 1009.0
20260509082005 80 190 0.0 3.0 0.00 0.00 0.00 49 1009.0
20260509081558 80 0 1.0 3.0 0.00 0.00 0.00 49 1008.9
20260509081511 80 190 1.0 3.0 0.00 0.00 0.00 49 1009.1
20260509081004 80 190 1.0 3.0 0.00 0.00 0.00 49 1009.1
20260509080504 80 190 0.0 4.0 0.00 0.00 0.00 49 1009.2
20260509080107 80 0 1.0 4.0 0.00 0.00 0.00 48 1009.0
20260509080003 80 190 1.0 4.0 0.00 0.00 0.00 49 1009.1
20260509075502 81 190 0.0 4.0 0.00 0.00 0.00 48 1009.1
20260509075002 81 190 2.0 4.0 0.00 0.00 0.00 48 1009.1
20260509074601 81 190 2.0 3.0 0.00 0.00 0.00 48 1009.1
20260509074059 81 190 0.0 2.0 0.00 0.00 0.00 48 1009.2
20260509073558 81 190 0.0 2.0 0.00 0.00 0.00 48 1009.1
20260509073141 82 190 0.0 3.0 0.00 0.00 0.00 47 1009.1
20260509073058 82 190 0.0 3.0 0.00 0.00 0.00 48 1009.2
20260509072557 82 190 0.0 3.0 0.00 0.00 0.00 48 1009.2
20260509072056 82 190 0.0 4.0 0.00 0.00 0.00 48 1009.3
20260509071559 82 190 1.0 5.0 0.00 0.00 0.00 47 1009.2
20260509071053 82 190 1.0 5.0 0.00 0.00 0.00 47 1009.4
20260509070552 82 190 0.0 3.0 0.00 0.00 0.00 47 1009.6
20260509070059 82 190 0.0 2.0 0.00 0.00 0.00 47 1009.7
20260509065551 82 190 0.0 5.0 0.00 0.00 0.00 47 1009.7
20260509065051 82 190 1.0 4.0 0.00 0.00 0.00 47 1009.7
20260509064558 83 0 0.0 3.0 0.00 0.00 0.00 46 1009.6
20260509064553 83 190 0.0 3.0 0.00 0.00 0.00 47 1009.8
20260509064053 83 190 0.0 1.0 0.00 0.00 0.00 46 1009.7